Theta_e
344 350 360 358 358 357 357 356 356 356 356 355 355 355 355 354 354 353 354 354 354 354 353 353 353 353 353 353 353 353 353 352 353 353 352 348 348 348 345 345 348 344 346
348 350 360 359 357 357 356 356 355 355 355 354 354 353 353 353 353 353 353 354 355 355 354 355 354 354 354 354 354 354 353 353 353 353 353 354 350 349 347 345 348 346 346
348 351 354 359 357 357 356 355 355 355 354 354 353 353 353 353 353 352 352 353 353 354 354 354 354 354 354 353 353 354 354 354 353 353 354 352 352 352 349 347 347 346 346
350 351 350 359 358 356 355 354 354 354 353 353 352 351 351 351 350 351 352 353 353 354 354 354 354 354 354 354 354 353 352 352 353 353 347 346 350 355 353 349 347 347 346
348 349 356 359 358 356 355 354 354 353 352 351 351 351 352 352 352 352 353 353 354 355 355 356 356 355 354 355 354 354 354 353 352 350 347 344 346 352 352 352 350 349 347
345 350 358 359 357 356 355 354 353 351 351 351 351 351 352 353 353 353 354 354 354 354 354 355 354 353 353 353 354 354 354 354 354 346 345 348 347 353 353 351 353 349 349
345 352 352 358 357 356 355 354 352 351 350 351 351 351 352 353 353 354 355 355 353 351 353 352 350 348 349 351 352 353 353 353 349 346 345 347 348 352 352 351 353 353 351
344 348 352 356 357 356 355 353 352 351 351 350 349 350 352 350 349 350 352 353 347 347 350 348 343 343 347 349 349 350 350 350 337 335 346 348 351 352 351 350 350 353 355
345 347 348 347 353 355 355 354 353 352 350 349 349 351 349 345 348 347 347 343 343 346 347 345 340 340 342 346 345 345 344 347 331 328 338 349 351 349 349 349 350 351 354
342 343 345 348 347 348 349 356 353 352 350 350 351 350 347 345 344 341 348 343 342 345 350 348 347 346 345 343 344 341 342 347 327 333 332 344 347 347 346 348 349 349 351
339 342 343 344 346 347 349 352 353 353 352 354 354 350 345 342 339 340 341 338 338 339 346 349 348 347 347 346 347 344 344 329 326 326 327 344 343 343 343 345 346 348 349
338 341 343 346 347 346 345 351 350 352 349 351 348 347 342 341 341 338 344 345 342 343 345 347 346 346 342 332 332 342 331 328 328 327 326 342 340 338 335 337 342 345 347
341 343 346 349 352 349 346 350 347 344 346 349 352 347 345 341 341 339 336 336 337 341 329 333 331 332 331 331 331 332 330 329 328 327 332 340 337 336 333 335 336 342 344
343 345 348 348 352 352 351 351 350 347 346 343 346 347 345 340 340 340 336 336 330 326 328 328 325 331 331 334 332 331 330 329 328 327 333 341 336 336 332 333 334 335 340
344 347 348 350 354 354 356 353 350 349 343 346 344 342 341 340 342 337 334 328 328 327 325 323 324 327 326 327 328 328 328 329 330 329 329 340 340 337 333 332 333 333 335
348 348 350 351 356 356 357 356 353 351 346 342 341 341 343 338 338 334 328 328 327 326 325 324 324 325 324 324 324 327 328 328 329 330 328 330 343 340 336 333 333 333 333
348 350 350 354 354 354 348 349 346 344 339 339 338 343 339 339 337 334 328 327 327 328 326 325 324 325 322 323 325 324 325 327 327 328 329 329 331 340 340 338 336 334 334
346 351 353 347 346 347 346 345 341 341 341 340 341 340 339 337 333 333 328 327 328 328 325 323 322 320 321 320 321 322 324 326 327 328 329 329 328 328 336 340 340 339 336
346 349 349 345 344 345 347 344 344 347 339 340 342 342 340 334 330 331 329 328 330 327 324 322 321 321 319 320 320 322 324 323 325 324 329 329 329 327 326 330 334 336 338
344 348 349 349 349 347 344 347 341 340 341 343 343 341 337 333 331 331 329 331 328 324 322 322 324 321 319 319 320 321 322 324 325 324 325 325 326 325 325 329 326 326 337
343 345 346 348 349 347 342 339 341 341 345 347 343 339 335 333 331 333 329 330 329 325 326 327 321 320 316 318 315 318 319 323 325 324 326 325 324 324 326 327 327 330 330
342 344 345 346 349 348 343 345 344 344 340 339 338 336 336 334 333 331 330 328 329 322 326 325 323 316 316 317 313 313 310 315 319 323 326 325 324 323 322 326 331 333 333
344 344 345 346 348 349 348 345 345 344 343 336 339 333 332 332 331 330 328 326 325 322 317 321 319 318 312 314 317 314 309 308 313 319 321 320 321 320 324 328 331 331 332
341 343 344 346 347 348 349 345 344 339 334 331 330 329 331 331 329 328 326 323 322 319 318 318 317 316 315 311 312 313 316 313 307 306 314 317 320 321 325 324 330 331 332
338 339 344 346 348 346 345 346 341 338 331 328 327 335 337 335 327 323 323 321 320 318 320 320 319 317 316 315 312 311 312 313 314 311 305 309 316 318 322 325 327 329 330
334 335 340 345 346 346 345 344 341 336 332 328 328 325 324 324 322 323 320 321 321 320 319 317 318 317 315 316 315 315 310 308 308 307 306 307 307 312 319 319 327 329 330
Wind_Speed
17 17 13 12 10 8 8 7 7 6 6 6 7 7 6 6 6 7 7 7 7 7 7 7 8 7 8 8 8 8 8 8 7 7 4 2 5 6 2 3 6 8 7
20 16 13 12 11 9 8 7 6 6 6 5 6 5 5 5 5 5 5 6 6 7 7 7 7 8 7 7 7 8 8 8 8 8 10 9 7 7 5 3 10 10 7
19 17 16 13 11 10 9 7 6 6 5 5 4 3 3 4 5 4 4 5 5 5 6 7 7 8 9 9 9 8 9 10 10 11 16 13 12 13 8 5 5 6 5
18 15 15 13 11 10 8 7 6 5 4 4 2 2 2 2 2 4 5 6 6 6 6 6 7 7 8 10 10 10 10 11 12 14 13 8 9 14 11 6 4 4 4
14 15 17 13 11 9 8 7 5 4 3 2 1 2 3 3 4 4 4 4 5 6 7 8 8 9 9 9 9 10 10 11 13 15 16 5 6 11 7 6 7 8 4
14 17 16 13 11 9 8 7 5 3 2 1 1 2 3 4 4 5 5 5 5 5 6 6 7 9 10 10 9 9 10 12 13 15 14 10 6 12 10 3 5 2 6
12 19 15 12 10 8 7 6 5 3 1 1 2 3 4 4 4 4 4 4 4 5 5 5 6 6 7 7 7 8 9 11 13 15 14 2 8 11 12 7 4 6 6
9 15 15 11 9 9 8 7 5 3 2 1 1 2 3 4 3 2 2 3 4 5 3 4 3 4 5 5 4 5 7 10 15 15 4 9 11 12 9 5 5 6 9
9 10 13 13 10 9 8 7 6 5 5 4 1 1 1 1 2 2 2 3 5 7 7 6 6 6 5 5 5 4 6 11 14 13 9 8 12 10 8 5 5 7 9
9 10 11 12 14 12 13 11 8 6 6 4 3 3 5 8 9 7 8 4 8 9 9 9 9 9 11 12 11 8 10 13 14 15 6 8 11 12 9 9 9 9 9
8 7 8 10 12 9 14 13 11 9 9 9 9 9 9 9 3 5 8 2 5 5 6 9 10 11 11 16 19 13 13 8 11 9 7 13 11 10 8 8 8 8 8
10 8 5 2 1 3 3 10 8 12 10 9 2 1 8 6 6 6 7 10 8 11 12 13 13 13 15 13 4 13 10 10 8 9 6 11 9 7 5 8 8 8 7
11 6 6 5 1 5 3 2 5 6 7 7 5 4 7 6 6 7 7 6 9 3 10 9 10 9 14 13 12 12 13 13 8 8 2 10 8 4 2 7 8 7 7
8 3 8 7 6 5 5 4 4 7 2 6 6 1 5 5 6 7 6 9 9 9 11 10 9 11 13 13 14 14 15 13 9 8 4 9 7 5 2 8 8 7 7
6 10 7 3 5 5 5 7 6 9 6 3 0 1 4 6 6 7 7 8 9 10 10 11 11 10 13 15 14 15 16 14 14 8 8 5 12 11 8 8 10 10 8
1 3 4 3 5 7 5 6 7 3 2 3 2 6 6 3 3 6 8 8 8 8 10 10 11 10 11 13 15 15 15 13 14 12 11 11 15 12 13 13 13 11 11
5 3 2 4 0 3 3 4 3 2 4 4 2 4 4 4 4 6 8 8 8 9 13 11 11 11 11 12 14 14 14 15 13 13 10 10 8 13 15 16 15 14 13
2 5 3 3 5 4 2 2 4 3 4 2 1 3 5 5 4 6 8 9 9 9 11 10 11 11 12 13 12 12 12 13 15 12 10 9 10 10 7 15 14 15 12
4 5 5 3 4 4 4 5 3 4 2 3 2 6 4 6 7 6 9 10 9 9 10 10 9 12 12 12 13 12 11 11 12 12 8 5 11 10 9 15 16 16 14
4 4 4 4 4 3 4 3 4 4 6 5 5 7 4 6 9 8 9 10 9 10 11 10 12 11 11 13 12 13 11 13 11 10 11 9 8 11 11 11 11 12 15
4 4 4 5 4 5 5 6 5 3 3 2 6 2 5 7 9 9 9 9 10 11 11 11 12 11 11 11 12 11 12 13 11 9 8 6 8 10 8 7 7 9 8
4 4 4 5 5 6 6 5 4 6 7 7 5 3 6 5 8 10 10 10 10 11 11 11 5 9 8 7 9 9 11 9 9 3 3 3 4 6 9 8 10 6 8
6 5 4 4 5 5 5 4 5 6 8 7 1 6 5 8 10 9 10 10 10 10 11 11 9 11 10 10 10 5 6 5 10 5 2 3 3 5 6 6 10 7 6
4 6 4 4 4 6 3 4 3 6 7 6 7 6 6 10 9 9 9 10 10 8 10 9 8 8 8 8 8 8 9 7 6 8 6 5 3 6 7 6 6 7 5
4 5 6 5 4 3 3 4 5 6 6 7 7 8 9 9 8 11 9 10 8 7 8 10 10 8 8 8 6 5 5 5 7 6 8 6 4 6 4 8 7 6 7
3 2 6 6 5 4 5 5 5 5 5 6 7 8 8 9 9 10 10 8 8 9 10 10 11 9 9 9 7 7 4 3 5 3 4 8 9 10 7 5 7 6 6
Wind_Direction
120 127 144 140 140 141 133 128 120 113 105 97 89 85 75 70 64 61 56 53 47 46 42 33 28 26 17 11 10 6 3 3 359 347 319 211 152 131 95 355 313 90 76
115 137 145 146 150 145 136 136 135 126 114 100 90 84 80 68 61 53 45 38 32 24 20 15 8 3 358 354 351 349 346 343 337 322 296 236 196 156 131 39 28 83 87
124 129 156 155 152 148 145 145 138 128 116 105 95 78 58 35 25 17 15 16 16 12 4 358 353 347 342 336 334 335 332 327 324 313 298 266 179 169 137 122 92 103 107
124 143 144 154 154 148 149 143 135 131 118 111 101 78 44 16 5 354 351 354 354 355 354 346 341 337 331 326 324 324 323 320 314 304 285 250 178 138 138 142 144 145 148
141 156 121 151 151 150 147 146 150 135 119 99 48 7 352 347 352 347 341 345 342 340 341 339 335 331 326 319 318 317 313 308 302 289 269 329 12 103 118 157 184 182 158
149 127 134 146 154 156 159 157 150 150 133 69 10 5 341 343 343 329 338 342 348 340 341 342 338 333 325 319 316 311 309 305 300 276 257 119 245 109 83 70 237 225 174
143 114 142 149 155 160 162 164 156 167 118 8 359 358 341 334 327 321 317 317 337 343 345 340 344 351 350 342 330 318 307 300 290 299 339 311 76 93 74 37 284 234 221
133 130 129 145 160 167 174 171 165 178 158 205 279 354 354 1 356 352 335 323 334 335 332 322 319 331 341 338 345 337 321 307 302 299 229 77 68 68 53 35 346 295 245
143 147 149 165 167 182 184 181 180 192 188 199 206 326 323 168 127 119 96 16 355 342 327 302 290 295 288 280 274 274 289 289 288 280 261 102 80 57 25 353 329 320 290
156 158 159 172 173 187 172 181 188 204 213 200 205 223 232 220 199 210 164 71 1 339 322 307 300 301 296 279 258 248 255 257 264 272 303 78 71 58 22 342 322 321 329
155 155 181 186 161 217 146 156 181 204 216 218 209 211 232 239 305 355 91 160 253 280 286 274 277 275 276 271 241 233 251 279 340 320 300 88 75 57 20 332 322 312 319
153 165 162 198 50 222 219 151 202 178 212 205 233 223 271 18 295 300 270 217 224 240 240 239 246 255 257 263 294 216 247 316 306 294 290 112 98 76 16 327 323 322 315
129 144 153 157 182 291 245 247 237 199 198 191 177 291 324 331 313 314 333 356 336 226 327 333 306 282 321 320 314 309 306 304 284 278 274 130 128 125 350 309 310 323 331
122 156 161 171 183 222 260 237 290 307 288 210 97 30 261 272 353 352 335 338 336 333 331 330 319 325 307 301 291 283 280 279 278 284 285 140 145 166 238 291 297 306 309
185 170 205 173 198 220 227 288 296 306 300 13 21 125 336 325 19 338 347 321 332 330 331 326 318 315 309 302 292 293 292 290 300 299 292 205 192 188 204 244 279 295 302
250 293 277 205 188 224 262 297 288 280 326 273 322 42 28 345 4 323 322 340 316 325 333 311 313 309 300 298 292 284 277 276 273 268 271 272 175 189 206 220 239 265 285
162 262 194 253 206 235 218 235 241 258 317 347 1 72 299 291 351 335 324 310 323 346 311 310 312 305 300 300 298 287 283 270 256 254 270 274 272 205 211 216 226 239 258
207 158 203 268 139 177 163 223 291 27 333 22 21 288 252 280 306 308 320 321 344 314 311 320 315 316 319 309 301 294 292 292 292 282 261 280 279 286 244 221 225 236 249
183 166 185 190 211 170 157 263 257 56 261 229 277 265 252 310 307 312 307 324 332 309 311 315 323 325 304 302 295 281 278 276 277 276 283 263 269 291 288 288 297 286 237
149 159 184 195 195 216 267 230 270 232 233 231 278 287 333 303 310 320 317 313 317 310 313 331 315 302 310 303 317 318 298 292 299 273 276 278 283 274 280 279 281 281 255
143 162 201 190 193 231 230 244 240 246 291 240 274 307 296 308 322 318 302 322 313 310 330 301 300 316 300 314 319 301 305 300 260 262 276 273 320 314 303 289 270 268 273
173 180 198 234 215 217 240 231 339 334 318 311 309 302 266 287 294 298 328 314 315 311 304 296 320 312 300 291 310 306 287 284 269 14 11 320 34 335 302 314 328 308 291
186 194 210 231 232 221 277 270 219 235 230 243 345 279 5 328 307 313 304 307 324 318 305 336 337 314 307 303 298 285 297 307 331 308 316 248 310 290 280 297 300 283 290
240 155 194 206 203 207 214 266 274 302 285 348 279 330 324 288 305 280 303 329 321 330 319 303 285 292 287 298 304 299 306 305 303 301 317 345 8 332 305 302 298 322 288
111 187 155 164 178 144 196 272 277 261 328 326 332 331 305 272 328 312 329 330 342 305 311 302 303 302 294 297 295 291 287 278 276 271 288 295 318 293 330 324 316 294 296
128 45 138 161 171 189 224 226 239 279 300 321 328 308 313 334 317 335 339 340 311 308 322 303 297 300 288 284 290 269 258 273 295 307 313 301 309 310 321 336 316 309 308